Regional Weather Roundup
Issued by NWS

Home | Current Version | Previous Version | Graphics & Text | Print | Product List | Glossary Off
Versions: 1 2 3 4 5 6 7 8 9 10 11 12 13 14 15 16 17 18 19 20 21 22 23 24 25 26 27 28 29 30 31 32 33 34 35 36 37 38 39 40 41 42 43 44 45 46 47 48 49 50

000
ASUS43 KDMX 271003
RWRIA

WEATHER ROUNDUP FOR IOWA
NATIONAL WEATHER SERVICE DES MOINES IA
500 AM CDT SAT AUG 27 2016

NOTE: "FAIR" INDICATES FEW OR NO CLOUDS BELOW 12,000 FEET WITH NO
SIGNIFICANT WEATHER AND/OR OBSTRUCTIONS TO VISIBILITY.

* - THESE STATIONS ARE NOT NWS STATIONS...THUS NOT UNDER NWS
QUALITY CONTROL.  THEY ALSO DO NOT REPORT WEATHER SUCH
AS PRECIPITATION OR FOG.

IAZ001>003-012>014-020>022-031>034-043>046-271100-
   NORTHWEST IOWA

CITY           SKY/WX    TMP DP  RH WIND       PRES   REMARKS
CARROLL *      CLOUDY    63  63 100 E3        30.02S
CHEROKEE *     CLOUDY    61  61  98 SE3       30.00F
DENISON *      FOG       63  63 100 E6        29.99S VSB 1
LE MARS *      CLOUDY    63  61  94 S5        30.01S
ORANGE CITY *  CLOUDY    61  61 100 CALM      30.01R
SHELDON *      CLOUDY    61  61 100 SE5       29.99F
SIOUX CITY     CLOUDY    64  61  90 SE7       30.00S
SPENCER        CLOUDY    60  59  96 E6        30.03S
STORM LAKE *   CLOUDY    61  59  94 SE6       30.02F FOG
$$

IAZ055>058-069>071-079>083-090>094-271100-
   SOUTHWEST IOWA

CITY           SKY/WX    TMP DP  RH WIND       PRES   REMARKS
ATLANTIC *     CLOUDY    64  64 100 CALM      30.01R FOG
AUDUBON *      FOG       63  61  94 E3        30.03R VSB 3/4
CLARINDA *     FOG       68  68 100 MISG      30.01F VSB 1/2
COUNCIL BLFS * FOG       64  64 100 SE5       30.00F VSB<1/4
CRESTON *      FOG       64  64 100 E5        30.02R VSB 1/4
HARLAN  *      FOG       64  64 100 E5        30.04S VSB 1/2
LAMONI         FOG       66  66 100 CALM      30.00S VSB 1/2
RED OAK *      FOG       66  66 100 CALM      30.00R VSB 1/4
SHENANDOAH *   FOG       66 N/A N/A CALM      30.00S VSB 1/4
$$

IAZ047>049-059>061-072>074-084-271100-
   CENTRAL IOWA

CITY           SKY/WX    TMP DP  RH WIND       PRES   REMARKS
AMES           CLOUDY    61  61 100 N3        30.02R
ANKENY *         N/A    N/A N/A N/A MISG        N/A
BOONE *        CLOUDY    61  59  94 NE6       30.01R
CHARITON *       N/A     68  66  94 MISG      29.98S
DES MOINES     CLOUDY    64  62  93 N3        29.99F
GRINNELL*      DRIZZLE   63  61  96 NE6       30.00S
KNOXVILLE *    CLOUDY    66  64  94 E5        29.97S FOG
MARSHALLTOWN   CLOUDY    63  62  97 E5        30.00R
NEWTON *       CLOUDY    63  63 100 E7        29.99S FOG
PELLA *        DRIZZLE   65  64  96 CALM      30.00S
PERRY *        CLOUDY    63  63  99 CALM      30.01S
$$

IAZ004>006-015-016-023>025-035-036-271100-
   NORTH CENTRAL IOWA

CITY           SKY/WX    TMP DP  RH WIND       PRES   REMARKS
ALGONA *       DRIZZLE   61  59  94 SE7       30.03R
ESTHERVILLE    LGT RAIN  58  58 100 S5        30.03S FOG
FORT DODGE *   CLOUDY    61  57  88 CALM      30.04R
MASON CITY     CLOUDY    61  58  90 E7        30.05S
FOREST CITY *    N/A    N/A N/A N/A MISG        N/A
WEBSTER CITY * LGT RAIN  61  61 100 CALM      30.01R
IOWA FALLS *   CLOUDY    61  59  93 NE6       30.03S
$$

IAZ007>011-017>019-026>030-037>042-050>054-066-271100-
   NORTHEAST IOWA

CITY           SKY/WX    TMP DP  RH WIND       PRES   REMARKS
CEDAR RAPIDS   CLOUDY    65  65 100 E14       30.00F
CHARLES CITY * MOCLDY    61  61 100 E12       30.04S
CLINTON *      CLOUDY    70  69  97 SE8       30.02F
DECORAH *      CLOUDY    59  59 100 E8        30.05S
DUBUQUE        RAIN      63  62  97 NE9       30.06S FOG
MONTICELLO *   CLOUDY    64  63  94 NE5       30.02F
OELWEIN *      CLOUDY    61  61 100 NE9       30.04S
WATERLOO       CLOUDY    61  59  93 NE7       30.00F
$$

IAZ064-065-067-068-078-271100-
   EAST CENTRAL IOWA

CITY           SKY/WX    TMP DP  RH WIND       PRES   REMARKS
DAVENPORT      CLOUDY    70  69  97 SE6       30.00F
IOWA CITY      CLOUDY    67  66  97 NE7       30.00F
MT. PLEASANT * CLEAR     70  70 100 S3        29.99S
MUSCATINE *    CLOUDY    72  70  94 SE3       29.99F
QUAD CITIES    CLOUDY    72  69  90 CALM      29.99F
$$

IAZ062-063-075>077-085>089-095>099-271100-
   SOUTHEAST IOWA

CITY           SKY/WX    TMP DP  RH WIND       PRES   REMARKS
BURLINGTON     CLOUDY    69  69 100 S6        29.99F FOG
FAIRFIELD *    MOCLDY    70  68  94 CALM      29.99R FOG
FORT MADISON * CLEAR     68  68 100 SE5       30.00F
KEOKUK *       CLEAR     68  68 100 SE6       29.99F
OSKALOOSA *    CLOUDY    65  65  97 CALM      29.99S FOG
CENTERVILLE *  CLOUDY    68  68 100 CALM      30.01S
OTTUMWA        CLOUDY    67  66  97 S3        29.99R
WASHINGTON *   CLOUDY    70  70 100 SE6       30.00S FOG
$$

ABBREVIATIONS USED IN REMARKS
   TC - TEMPERATURES IN CELSIUS
  WCI - WIND CHILL INDEX
   HX - HEAT INDEX
  VSB - VISIBILITY
$$





USA.gov is the U.S. government's official web portal to all federal, state and local government web resources and services.